User: anonymous   Login
Location: Unspecified
(0.0000°N, 0.0000°E)
Time: 20:14:17
(UTC+00:00)
Language:

STARLINK-3447 - Orbit

View from above orbital plane
View from above orbital plane
View from above satellite
View from above satellite

Ground track
Ground track

The orbit is defined by the following mean orbital elements,

1 51736U          26145.55781559 +.00000000 +00000-0 +66748-4 0 00003
2 51736  53.2111 334.1330 0001300  91.3300 268.7841 15.08837090    01
Epoch (UTC): 25 May 2026 13:23:15
Eccentricity: 0.0001300
inclination: 53.2111°
perigee height: 539 km
apogee height: 541 km
right ascension of ascending node: 334.1330°
argument of perigee: 91.3300°
revolutions per day: 15.08837090
mean anomaly at epoch: 268.7841°

The dashed part of the orbit path shows where the satellite is in the earth's shadow,  

DLR